Home > Weather > Lucapa > Past weeks

Flag for Angola Weather for the Past 2 Weeks in Lucapa, Angola

Now
77 °F

Passing clouds.


Feels Like: 78 °F
Forecast: 73 / 88 °F
Wind: 7 mph from South

Location: Kinshasa / N'Djili

Current Time: Apr 29, 2016 at 9:29:03 PM

Latest Report: Apr 29, 2016 at 8:00 PM


Visibility: 5 mi

Pressure: 29.89 "Hg (26.81 "Hg at 950m altitude)

Humidity: 89%

Dew Point: 73 °F

Location of LucapaLocation

Historic Weather in Lucapa — Graph

°F

Lucapa Temperature Yesterday

Maximum temperature yesterday: 93 °F (at 3:00 PM)
Minimum temperature yesterday: 75 °F (at 12:00 AM)
Average temperature yesterday: 82 °F

High & Low Weather Summary for the Past Weeks

 TemperatureHumidityPressure
High95 °F (Apr 23, 4:00 PM)100% (Apr 18, 5:00 AM)30.04 "Hg (Apr 18, 5:00 AM)
Low73 °F (Apr 16, 12:00 PM)47% (Apr 23, 2:00 PM)29.71 "Hg (Apr 23, 4:00 PM)
Average81 °F81%29.88 "Hg
* Reported Apr 14 8:00 PM — Apr 29 8:00 PM, Lucapa, Weather by CustomWeather, © 2016

Note: Actual official high and low records may vary slightly from our data, if they occured in-between our weather recording intervals... More about our weather records

Advertising

Lucapa Weather History for the Previous 24 Hours

Scroll right to see more
 ConditionsComfort  
Time TempWeatherWind HumidityBarometerVisibility
8:00 PM
Fri, Apr 29
77 °FPassing clouds.7 mph89%29.89 "Hg5 mi
7:00 PM79 °FPassing clouds.No wind89%29.86 "Hg6 mi
6:00 PM81 °FPassing clouds.No wind79%29.86 "Hg6 mi
5:00 PM81 °FPartly sunny.5 mph79%29.86 "Hg6 mi
4:00 PM82 °FBroken clouds.6 mph74%29.83 "HgN/A
3:00 PM82 °FBroken clouds.9 mph74%29.86 "HgN/A
2:00 PM81 °FBroken clouds.5 mph79%29.89 "HgN/A
1:00 PM79 °FLight rain. Broken clouds.5 mph89%29.92 "Hg5 mi
12:00 PM81 °FBroken clouds.7 mph79%29.95 "HgN/A
11:00 AM81 °FBroken clouds.2 mph79%29.95 "Hg5 mi
10:00 AM77 °FMore clouds than sun.2 mph89%29.95 "Hg5 mi
9:00 AM77 °FBroken clouds.5 mph83%29.95 "Hg4 mi
8:00 AM75 °FPartly sunny.7 mph94%29.95 "Hg4 mi
7:00 AM75 °FPartly sunny.2 mph89%29.92 "Hg5 mi
6:00 AM73 °FLight rain. Overcast.5 mph94%29.89 "Hg4 mi
5:00 AM73 °FThunderstorms. Mostly cloudy.5 mph94%29.86 "Hg4 mi
4:00 AM75 °FMild.9 mph94%29.86 "HgN/A
3:00 AM75 °FMild.9 mph94%29.86 "HgN/A
2:00 AM77 °FThunderstorms. Mostly cloudy.5 mph94%29.86 "Hg4 mi
1:02 AM77 °FThunderstorms. Mostly cloudy.5 mph94%29.86 "Hg5 mi
12:00 AM79 °FThunderstorms. Partly cloudy.9 mph89%29.86 "Hg5 mi
11:00 PM
Thu, Apr 28
81 °FThunderstorms. Partly cloudy.7 mph74%29.89 "Hg5 mi
10:00 PM81 °FThunderstorms. Partly cloudy.7 mph74%29.86 "Hg5 mi
9:00 PM81 °FThunderstorms. Partly cloudy.12 mph74%29.83 "Hg5 mi
Weather by CustomWeather, © 2016

See weather overviewHow to use our weather pages